Location: Moscow
(55.7500°N, 37.5830°E)
Time: 20:18:29
(UTC+03:00)

ISS - Pass Details

Date: 19 May 2021
Orbit: 417 x 422 km, 51.6° (Epoch: 16 June)

Event Time Altitude Azimuth Distance (km) Brightness Sun altitude
Rises 01:33:37 0° 273° (W) 2,373 -0.1 -13.1°
Reaches altitude 10° 01:36:10 10° 254° (WSW) 1,506 -1.3 -13.0°
Enters shadow 01:36:27 11° 250° (WSW) 1,428 -1.4 -13.0°
